Location: Luxembourg
(49.6117°N, 6.1300°E)
Time: 06:26:55
(UTC+02:00)

Envisat - Visible Passes

Search period start: 26 April 2019 00:00
Search period end: 06 May 2019 00:00
Orbit: 764 x 766 km, 98.2° (Epoch: 25 April)

Date Brightness Start Highest point End Pass type
(mag) Time Alt. Az. Time Alt. Az. Time Alt. Az.
27 Apr 6.1 21:48:08 10° WSW 21:49:49 11° W 21:51:29 10° WNW visible
30 Apr 5.9 21:35:41 10° WSW 21:38:25 14° W 21:41:09 10° NW visible
05 May 6.3 21:52:05 10° W 21:52:57 10° W 21:53:50 10° WNW visible
